Voltar ao catálogo

STARLINK-3998

AtivoComunicaçõesVLEO
NORAD 52610·PAYLOAD·🇺🇸 United States

Lançado May 14, 2022 de Cape Canaveral Space Force Station

Loading…

Próximas Passagens (próximas 24 horas)

TLE

AtualizadoSource: CelesTrak SupGP

Época: Sep 14, 2026, 21:44 UTC

1 52610C 22052N   26257.90604167 -.00056222  00000+0 -16087-2 0  2579
2 52610  53.1567 142.4835 0001264  88.3395 303.8515 15.35424433    19

Acompanhe STARLINK-3998 em tempo real com AllMySat

Download on the App Store